Overview Statistics Trail Chart Weather Telemetry Raw packets
 

This is the latest recevied weather packets stored in our database for station/object DM8MH-13. If no packets are shown the sender has not sent any weather packets the latest 10 day(s).

<< 5 6 7 8 9 10 11 >>
Time Temp. Humidity Pressure Rain* Wind** Luminosity Snow
1788594070 17.22° C 79% 1017.4 hPa 0 mm - 342 W/m² -
1788593472 16.67° C 80% 1017.4 hPa 0 mm - 337 W/m² -
1788592871 16.67° C 80% 1017.2 hPa 0 mm - 290 W/m² -
1788592271 16.67° C 81% 1017.2 hPa 0 mm - 298 W/m² -
1788591670 16.11° C 82% 1017.2 hPa 0 mm - 255 W/m² -
1788591069 15.56° C 83% 1017.2 hPa 0 mm - 130 W/m² -
1788590470 15.56° C 84% 1017.1 hPa 0 mm - 118 W/m² -
1788589870 15° C 85% 1017.1 hPa 0 mm - 82 W/m² -
1788589270 15° C 85% 1017.2 hPa 0 mm - 75 W/m² -
1788588670 15° C 85% 1016.9 hPa 0 mm - 75 W/m² -
1788588070 14.44° C 85% 1016.8 hPa 0 mm - 92 W/m² -
1788587471 14.44° C 85% 1016.7 hPa 0 mm - 116 W/m² -
1788586870 14.44° C 86% 1016.5 hPa 0 mm - 33 W/m² -
1788586270 14.44° C 86% 1016.5 hPa 0 mm - 45 W/m² -
1788585672 14.44° C 86% 1016.5 hPa 0 mm - 30 W/m² -
1788585072 14.44° C 86% 1016.5 hPa 0 mm - 19 W/m² -
1788584472 14.44° C 86% 1016.4 hPa 0 mm - 16 W/m² -
1788583872 14.44° C 85% 1016.3 hPa 0 mm - 11 W/m² -
1788583271 15° C 85% 1016.1 hPa 0 mm - 3 W/m² -
1788582673 15° C 84% 1016.1 hPa 0 mm - 0 W/m² -
1788582073 15° C 84% 1015.9 hPa 0 mm - 0 W/m² -
1788581472 15° C 84% 1016 hPa 0 mm - 0 W/m² -
1788580872 15° C 84% 1015.9 hPa 0 mm - 0 W/m² -
1788580272 15° C 83% 1015.7 hPa 0 mm - 0 W/m² -
1788579672 15° C 83% 1015.8 hPa 0 mm - 0 W/m² -

* Rain latest hour (hover to see other rain measurements)
** Current wind speed in m/s (hover to see current wind gust speed)